Regional Weather Roundup
Issued by NWS Albany, NY

Home | Current Version | Previous Version | Text Only | Print | Product List | Glossary On
Versions: 1 2 3 4 5 6 7 8 9 10 11 12 13 14 15 16 17 18 19 20 21 22 23 24 25 26 27 28 29 30 31 32 33 34 35 36 37 38 39 40 41 42 43 44 45 46 47 48 49 50
000
ASUS41 KALY 132210
RWRALY

NEW YORK STATE HOURLY WEATHER ROUNDUP
NATIONAL WEATHER SERVICE ALBANY NY
500 PM EST WED DEC 13 2017

NOTE: "FAIR" INDICATES FEW OR NO CLOUDS BELOW 12,000 FEET WITH NO
SIGNIFICANT WEATHER AND/OR NO OBSTRUCTIONS TO VISIBILITY.

NYZ032-033-038>043-046>054-057>066-NYZ062>081-082-084-132300-
EAST


CITY           SKY/WX    TMP DP  RH WIND       PRES   REMARKS
ALBANY         FLURRIES  21   9  59 W16G31    29.55R WCI   7
GLENS FALLS    CLOUDY    18   6  59 CALM      29.49R
POUGHKEEPSIE   CLEAR     25   3  38 W16G30    29.58S WCI  12
NEWBURGH       CLEAR     23   7  50 W23G35    29.58R WCI   7
MONTGOMERY     PTCLDY    24   3  40 NW8       29.59R WCI  15
WHITE PLAINS   PTCLDY    26   2  35 W13G23    29.57R WCI  15
ISLIP          PTCLDY    29   3  33 W16       29.59R WCI  17
NEW YORK CITY  CLEAR     31   6  35 W22G30    29.63R WCI  18
CENTRAL PARK   CLEAR     29   8  41 W6G18     29.64R WCI  23
$$

NYZ005>009-017-018-044>046-055-056-132300-
CENTRAL


CITY           SKY/WX    TMP DP  RH WIND       PRES   REMARKS
FULTON         CLOUDY    20   9  62 W14       29.60R WCI   7
SYRACUSE       LGT SNOW  17  11  77 W18       29.61S BLWGSNOWWCI   1
ROME           LGT SNOW  17  14  88 W14       29.59R FOG     WCI   3
ELMIRA         CLOUDY    22   8  55 W8        29.62R WCI  12
BINGHAMTON     CLEAR     15   1  53 W10       29.53S WCI   2
MONTICELLO     CLEAR     17   3  54 W14G21    29.54R WCI   3
$$

NYZ026>034-041>043-087-132300-
NORTH


CITY           SKY/WX    TMP DP  RH WIND       PRES   REMARKS
WATERTOWN      CLEAR     13   5  70 W8        29.59S WCI   2
FORT DRUM      NOT AVBL
OGDENSBURG     FAIR      11   3  70 W7        29.55R WCI   1
MASSENA        CLEAR     11   1  64 W13G21    29.55R WCI  -4
SARANAC LAKE   CLOUDY     6   1  80 W12G21    29.38R HAZE    WCI  -9
PLATTSBURGH    CLEAR     12   1  61 W10G25    29.45R WCI  -1
$$

NYZ001>004-010>016-019>021-085-132300-
WEST


CITY           SKY/WX    TMP DP  RH WIND       PRES   REMARKS
NIAGARA FALLS  CLOUDY    19   7  59 CALM      29.62F
BUFFALO        CLOUDY    18   7  62 CALM      29.62F
DUNKIRK        LGT SNOW  19  16  88 S3        29.61F FOG
JAMESTOWN      LGT SNOW  15  12  88 S5        29.54F FOG     WCI   8
WELLSVILLE     CLOUDY    16   8  71 SW7       29.54S WCI   6
ROCHESTER      FLURRIES  18  10  71 W5        29.64S WCI  11
PENN YAN       CLEAR     17   3  54 VRB7      29.62R WCI   8
$$

             KEY
       WCI = WIND CHILL INDEX
       VSB = VISIBILITY
       HX  = HEAT INDEX
$$



USA.gov is the U.S. government's official web portal to all federal, state and local government web resources and services.